AE5HO Weather Reports


Display with metric or nautical units.
time (UTC)temp
F
wind
direction
speed
MPH
gust
MPH
rain 1hr
in
rain 24hr
in
rain mn
in
humidity
%
barometer
mb
20260510113204 68 188 0.0 3.0 0.00 0.00 0.00 83 1013.9
20260510112700 68 84 0.0 2.0 0.00 0.00 0.00 83 1013.9
20260510112158 68 142 2.0 2.0 0.00 0.00 0.00 83 1014.1
20260510111653 68 172 0.0 2.0 0.00 0.00 0.00 83 1014.0
20260510111151 68 180 0.0 2.0 0.00 0.00 0.00 83 1014.1
20260510110645 68 90 0.0 1.0 0.00 0.00 0.00 83 1014.2
20260510110143 68 45 0.0 2.0 0.00 0.00 0.00 83 1014.3
20260510105638 68 175 1.0 2.0 0.00 0.00 0.00 83 1013.9
20260510105138 68 190 2.0 4.0 0.00 0.00 0.00 82 1013.7
20260510104635 68 90 1.0 4.0 0.00 0.00 0.00 82 1013.7
20260510104132 68 204 0.0 3.0 0.00 0.00 0.00 81 1013.9
20260510103629 68 159 2.0 2.0 0.00 0.00 0.00 81 1013.6
20260510103125 68 169 0.0 3.0 0.00 0.00 0.00 80 1013.5
20260510102620 68 225 2.0 2.0 0.00 0.00 0.00 80 1013.7
20260510102116 68 180 0.0 2.0 0.00 0.00 0.00 81 1013.7
20260510101615 69 254 0.0 3.0 0.00 0.00 0.00 81 1013.9
20260510101112 69 225 0.0 4.0 0.00 0.00 0.00 80 1013.8
20260510100608 69 170 0.0 3.0 0.00 0.00 0.00 78 1013.7
20260510100106 70 198 1.0 7.0 0.00 0.00 0.00 77 1014.0
20260510095601 70 180 0.0 3.0 0.00 0.00 0.00 77 1014.0
20260510095102 71 180 0.0 3.0 0.00 0.00 0.00 77 1013.5
20260510094601 71 180 1.0 3.0 0.00 0.00 0.00 77 1013.6
20260510094056 71 38 0.0 4.0 0.00 0.00 0.00 77 1013.6
20260510093553 71 166 0.0 3.0 0.00 0.00 0.00 78 1013.3
20260510093050 71 180 0.0 4.0 0.00 0.00 0.00 78 1013.0
20260510092547 71 180 0.0 3.0 0.00 0.00 0.00 78 1013.1
20260510092046 71 90 0.0 4.0 0.00 0.00 0.00 78 1013.1
20260510091543 71 81 0.0 5.0 0.00 0.00 0.00 78 1013.0
20260510091039 71 191 0.0 6.0 0.00 0.00 0.00 79 1013.5
20260510090537 71 182 4.0 7.0 0.00 0.00 0.00 78 1013.4
20260510090032 72 169 2.0 5.0 0.00 0.00 0.00 78 1013.4
20260510085533 73 106 3.0 8.0 0.00 0.00 0.00 81 1012.6
20260510085029 73 180 0.0 5.0 0.00 0.00 0.00 85 1012.5
20260510084526 74 57 2.0 4.0 0.00 0.00 0.00 86 1012.7
20260510084023 75 67 3.0 4.0 0.00 0.00 0.00 86 1012.4
20260510083519 75 37 0.0 5.0 0.00 0.00 0.00 86 1012.3
20260510083015 75 33 0.0 4.0 0.00 0.00 0.00 86 1012.1
20260510082513 75 90 0.0 2.0 0.00 0.00 0.00 85 1011.8
20260510082012 75 172 0.0 2.0 0.00 0.00 0.00 85 1011.7
20260510081508 75 186 0.0 6.0 0.00 0.00 0.00 84 1012.2
20260510081005 75 220 0.0 3.0 0.00 0.00 0.00 85 1012.6
20260510080502 74 71 0.0 3.0 0.00 0.00 0.00 85 1012.1
20260510080000 74 74 0.0 2.0 0.00 0.00 0.00 86 1011.8
20260510075457 73 66 0.0 1.0 0.00 0.00 0.00 86 1011.4
20260510074954 73 81 0.0 0.0 0.00 0.00 0.00 85 1011.1
20260510074452 74 270 0.0 0.0 0.00 0.00 0.00 85 1010.7
20260510073947 74 270 0.0 0.0 0.00 0.00 0.00 84 1010.8
20260510073443 74 270 0.0 0.0 0.00 0.00 0.00 84 1010.8
20260510072940 75 270 0.0 0.0 0.00 0.00 0.00 83 1010.6
20260510072437 75 18 0.0 1.0 0.00 0.00 0.00 83 1010.7
20260510071932 75 270 0.0 1.0 0.00 0.00 0.00 82 1010.6
20260510071429 75 188 0.0 0.0 0.00 0.00 0.00 82 1010.7
20260510070927 75 120 0.0 1.0 0.00 0.00 0.00 81 1010.6
20260510070424 75 172 0.0 0.0 0.00 0.00 0.00 81 1010.6
20260510065920 75 175 0.0 1.0 0.00 0.00 0.00 80 1010.2
20260510065416 76 172 0.0 2.0 0.00 0.00 0.00 80 1010.1
20260510064913 76 220 2.0 3.0 0.00 0.00 0.00 80 1009.9
20260510064411 76 185 1.0 3.0 0.00 0.00 0.00 79 1010.6
20260510063907 76 216 2.0 5.0 0.00 0.00 0.00 79 1011.3
20260510063403 76 193 3.0 4.0 0.00 0.00 0.00 78 1011.3
20260510062901 76 195 0.0 4.0 0.00 0.00 0.00 77 1011.8
20260510062355 76 166 1.0 6.0 0.00 0.00 0.00 77 1012.0
20260510061851 76 82 1.0 5.0 0.00 0.00 0.00 76 1012.5
20260510061348 77 16 3.0 4.0 0.00 0.00 0.00 74 1012.6
20260510060844 77 179 5.0 5.0 0.00 0.00 0.00 73 1012.2
20260510060341 77 0 3.0 4.0 0.00 0.00 0.00 72 1012.2
20260510055838 77 123 2.0 4.0 0.00 0.00 0.00 72 1011.9
20260510055337 75 180 0.0 3.0 0.00 0.00 0.00 74 1011.3
20260510054836 75 0 0.0 1.0 0.00 0.00 0.00 74 1010.4
20260510054332 75 97 0.0 1.0 0.00 0.00 0.00 73 1010.1
20260510053827 75 283 0.0 0.0 0.00 0.00 0.00 74 1009.6
20260510053323 75 283 0.0 0.0 0.00 0.00 0.00 73 1009.4
20260510052820 76 283 0.0 1.0 0.00 0.00 0.00 72 1009.1
20260510052315 76 187 0.0 0.0 0.00 0.00 0.00 71 1009.4
20260510051812 76 165 0.0 1.0 0.00 0.00 0.00 70 1009.5
20260510051308 76 186 0.0 1.0 0.00 0.00 0.00 70 1009.6
20260510050806 76 162 0.0 3.0 0.00 0.00 0.00 69 1009.3
20260510050302 77 172 0.0 2.0 0.00 0.00 0.00 69 1009.4
20260510045759 77 187 0.0 2.0 0.00 0.00 0.00 69 1009.1
20260510045255 77 180 0.0 2.0 0.00 0.00 0.00 69 1009.2
20260510044753 77 180 1.0 1.0 0.00 0.00 0.00 69 1008.9
20260510044250 77 168 0.0 1.0 0.00 0.00 0.00 68 1008.8
20260510043746 77 180 0.0 1.0 0.00 0.00 0.00 68 1008.6
20260510043243 77 184 2.0 3.0 0.00 0.00 0.00 68 1008.7
20260510042740 77 185 1.0 2.0 0.00 0.00 0.00 68 1008.7
20260510042235 77 195 0.0 1.0 0.00 0.00 0.00 69 1009.0
20260510041733 77 185 0.0 2.0 0.00 0.00 0.00 69 1008.9
20260510041230 77 180 1.0 1.0 0.00 0.00 0.00 69 1009.2
20260510040727 77 174 0.0 0.0 0.00 0.00 0.00 68 1009.0
20260510040224 77 187 0.0 2.0 0.00 0.00 0.00 68 1009.1
20260510035719 77 180 0.0 2.0 0.00 0.00 0.00 68 1009.2
20260510035215 77 198 0.0 2.0 0.00 0.00 0.00 68 1009.2
20260510034711 77 194 0.0 0.0 0.00 0.00 0.00 68 1009.1
20260510034209 77 180 0.0 0.0 0.00 0.00 0.00 68 1009.1
20260510033705 77 180 1.0 1.0 0.00 0.00 0.00 67 1009.1
20260510033203 77 195 0.0 1.0 0.00 0.00 0.00 67 1009.3
20260510032659 77 180 1.0 1.0 0.00 0.00 0.00 68 1009.3
20260510032155 77 186 0.0 1.0 0.00 0.00 0.00 69 1009.4
20260510031649 77 279 0.0 0.0 0.00 0.00 0.00 68 1009.5
20260510031147 78 180 0.0 0.0 0.00 0.00 0.00 67 1009.2
20260510030646 78 195 0.0 1.0 0.00 0.00 0.00 66 1009.3
20260510030144 78 180 0.0 0.0 0.00 0.00 0.00 64 1009.3
20260510025641 79 180 0.0 0.0 0.00 0.00 0.00 64 1009.3
20260510025138 79 180 0.0 1.0 0.00 0.00 0.00 63 1009.4
20260510024635 79 180 0.0 0.0 0.00 0.00 0.00 62 1009.5
20260510024132 80 180 0.0 0.0 0.00 0.00 0.00 62 1009.2
20260510023628 80 180 0.0 0.0 0.00 0.00 0.00 61 1009.2
20260510023125 80 180 0.0 0.0 0.00 0.00 0.00 61 1009.1
20260510022625 80 191 0.0 2.0 0.00 0.00 0.00 61 1009.3
20260510022120 80 203 0.0 0.0 0.00 0.00 0.00 60 1008.9
20260510021616 80 270 0.0 1.0 0.00 0.00 0.00 59 1008.9
20260510021114 80 195 0.0 0.0 0.00 0.00 0.00 60 1009.0
20260510020608 81 192 0.0 1.0 0.00 0.00 0.00 59 1008.8
20260510020103 81 180 0.0 1.0 0.00 0.00 0.00 60 1008.9
20260510015559 81 203 0.0 0.0 0.00 0.00 0.00 59 1008.9
20260510015056 81 186 0.0 0.0 0.00 0.00 0.00 59 1008.7
20260510014552 82 186 0.0 1.0 0.00 0.00 0.00 59 1008.7
20260510014050 82 206 0.0 0.0 0.00 0.00 0.00 58 1008.7
20260510013544 82 194 0.0 1.0 0.00 0.00 0.00 59 1008.6
20260510013040 82 262 0.0 1.0 0.00 0.00 0.00 58 1008.7
20260510012539 82 195 0.0 0.0 0.00 0.00 0.00 59 1008.5
20260510012037 83 206 0.0 2.0 0.00 0.00 0.00 59 1008.5
20260510011536 83 261 0.0 1.0 0.00 0.00 0.00 59 1008.2
20260510011032 83 180 0.0 2.0 0.00 0.00 0.00 59 1008.1
20260510010529 84 198 0.0 3.0 0.00 0.00 0.00 59 1008.3
20260510010026 84 209 0.0 0.0 0.00 0.00 0.00 60 1008.1
20260510005521 84 261 0.0 2.0 0.00 0.00 0.00 59 1008.0
20260510005019 84 188 0.0 2.0 0.00 0.00 0.00 59 1007.8
20260510004517 85 286 0.0 0.0 0.00 0.00 0.00 59 1008.1
20260510004015 85 198 0.0 2.0 0.00 0.00 0.00 59 1008.0
20260510003511 86 203 0.0 2.0 0.00 0.00 0.00 58 1008.0
20260510003006 86 212 0.0 2.0 0.00 0.00 0.00 58 1007.8
20260510002502 86 312 2.0 2.0 0.00 0.00 0.00 57 1007.7
20260510001959 87 180 0.0 3.0 0.00 0.00 0.00 56 1007.8
20260510001457 87 257 0.0 3.0 0.00 0.00 0.00 56 1007.9
20260510000954 88 254 1.0 2.0 0.00 0.00 0.00 54 1007.9
20260510000450 90 180 0.0 3.0 0.00 0.00 0.00 54 1007.8
20260509235947 91 63 0.0 2.0 0.00 0.00 0.00 53 1008.0
20260509235443 92 209 0.0 2.0 0.00 0.00 0.00 52 1007.8
20260509234940 93 270 0.0 2.0 0.00 0.00 0.00 49 1008.0
20260509234437 94 276 0.0 2.0 0.00 0.00 0.00 44 1008.0
20260509233934 93 279 1.0 2.0 0.00 0.00 0.00 46 1007.7
20260509233432 91 262 1.0 2.0 0.00 0.00 0.00 49 1008.2
20260509232928 91 270 2.0 2.0 0.00 0.00 0.00 48 1008.1
20260509232425 90 261 1.0 3.0 0.00 0.00 0.00 50 1008.2
20260509231921 90 270 0.0 2.0 0.00 0.00 0.00 49 1008.0
20260509231418 91 257 0.0 2.0 0.00 0.00 0.00 48 1008.2
20260509230916 90 255 2.0 3.0 0.00 0.00 0.00 50 1008.2
20260509230413 91 270 0.0 3.0 0.00 0.00 0.00 50 1008.0
20260509225908 91 270 0.0 2.0 0.00 0.00 0.00 49 1008.0
20260509225406 91 337 0.0 1.0 0.00 0.00 0.00 44 1008.1
20260509224901 91 270 2.0 2.0 0.00 0.00 0.00 50 1008.1
20260509224357 89 264 2.0 3.0 0.00 0.00 0.00 51 1008.1
20260509223855 89 270 2.0 3.0 0.00 0.00 0.00 47 1008.0
20260509223351 91 270 0.0 2.0 0.00 0.00 0.00 50 1008.0
20260509222848 91 276 0.0 2.0 0.00 0.00 0.00 48 1008.1
20260509222348 91 276 0.0 3.0 0.00 0.00 0.00 48 1008.2
20260509221844 91 200 1.0 3.0 0.00 0.00 0.00 48 1008.2
20260509221342 90 192 0.0 2.0 0.00 0.00 0.00 46 1008.0
20260509220837 90 270 1.0 2.0 0.00 0.00 0.00 46 1007.9
20260509220333 90 186 0.0 0.0 0.00 0.00 0.00 45 1008.0
20260509215829 90 90 0.0 2.0 0.00 0.00 0.00 46 1008.3
20260509215326 90 188 0.0 1.0 0.00 0.00 0.00 46 1007.9
20260509214823 90 289 0.0 0.0 0.00 0.00 0.00 43 1008.2
20260509214320 89 185 0.0 2.0 0.00 0.00 0.00 47 1008.1
20260509213817 89 209 0.0 0.0 0.00 0.00 0.00 46 1008.3
20260509213312 89 74 0.0 2.0 0.00 0.00 0.00 49 1008.3
20260509212810 89 300 0.0 4.0 0.00 0.00 0.00 48 1008.3
20260509212308 89 32 0.0 3.0 0.00 0.00 0.00 49 1008.4
20260509211803 88 212 0.0 4.0 0.00 0.00 0.00 49 1008.5
20260509211259 88 289 2.0 3.0 0.00 0.00 0.00 49 1008.5
20260509210756 89 84 0.0 5.0 0.00 0.00 0.00 50 1008.8
20260509210254 89 71 2.0 5.0 0.00 0.00 0.00 52 1008.6
20260509205753 88 170 0.0 2.0 0.00 0.00 0.00 52 1008.9
20260509205248 89 9 2.0 3.0 0.00 0.00 0.00 50 1008.7
20260509204744 88 220 0.0 2.0 0.00 0.00 0.00 49 1009.0
20260509204241 88 338 2.0 2.0 0.00 0.00 0.00 53 1009.1
20260509203737 88 194 1.0 3.0 0.00 0.00 0.00 52 1009.1
20260509203235 88 73 2.0 3.0 0.00 0.00 0.00 53 1009.1
20260509202730 89 174 1.0 3.0 0.00 0.00 0.00 54 1009.3
20260509202226 88 180 0.0 2.0 0.00 0.00 0.00 54 1009.1
20260509201721 87 180 0.0 3.0 0.00 0.00 0.00 54 1009.4
20260509201218 87 175 0.0 2.0 0.00 0.00 0.00 56 1009.5
20260509200714 87 285 1.0 2.0 0.00 0.00 0.00 55 1009.7
20260509200209 87 0 0.0 3.0 0.00 0.00 0.00 51 1009.6
20260509195705 88 283 1.0 2.0 0.00 0.00 0.00 54 1009.7
20260509195201 87 261 0.0 3.0 0.00 0.00 0.00 57 1009.6
20260509194701 86 173 0.0 3.0 0.00 0.00 0.00 57 1009.7
20260509194158 87 60 0.0 2.0 0.00 0.00 0.00 57 1009.7
20260509193654 87 196 2.0 2.0 0.00 0.00 0.00 56 1009.6
20260509193149 87 70 2.0 2.0 0.00 0.00 0.00 58 1009.9
20260509192646 87 240 0.0 3.0 0.00 0.00 0.00 59 1009.8
20260509192141 87 180 0.0 3.0 0.00 0.00 0.00 61 1009.9
20260509191641 86 346 0.0 3.0 0.00 0.00 0.00 60 1010.3
20260509191138 86 195 0.0 2.0 0.00 0.00 0.00 61 1009.9
20260509190634 86 90 1.0 2.0 0.00 0.00 0.00 61 1009.9
20260509190132 86 277 0.0 3.0 0.00 0.00 0.00 65 1010.0
20260509185630 86 337 0.0 2.0 0.00 0.00 0.00 62 1010.1
20260509185125 86 187 0.0 2.0 0.00 0.00 0.00 66 1010.0
20260509184624 86 28 2.0 3.0 0.00 0.00 0.00 66 1010.0
20260509184120 86 53 0.0 2.0 0.00 0.00 0.00 66 1010.1
20260509183616 86 284 0.0 4.0 0.00 0.00 0.00 65 1010.2
20260509183112 86 79 0.0 4.0 0.00 0.00 0.00 66 1010.1
20260509182608 86 195 2.0 4.0 0.00 0.00 0.00 66 1010.1
20260509182105 86 206 1.0 1.0 0.00 0.00 0.00 65 1010.3
20260509181603 85 5 0.0 3.0 0.00 0.00 0.00 66 1010.4
20260509181100 85 233 0.0 2.0 0.00 0.00 0.00 67 1010.2
20260509180556 84 52 0.0 4.0 0.00 0.00 0.00 66 1010.4
20260509180054 85 48 3.0 3.0 0.00 0.00 0.00 67 1010.3
20260509175549 85 235 0.0 2.0 0.00 0.00 0.00 67 1010.5
20260509175046 84 65 2.0 4.0 0.00 0.00 0.00 67 1010.4
20260509174542 86 195 2.0 3.0 0.00 0.00 0.00 66 1010.5
20260509174038 85 111 1.0 3.0 0.00 0.00 0.00 65 1010.3
20260509173538 85 190 0.0 2.0 0.00 0.00 0.00 67 1010.6
20260509173034 85 270 0.0 3.0 0.00 0.00 0.00 64 1010.6
20260509172531 86 209 0.0 2.0 0.00 0.00 0.00 64 1010.6
20260509172027 86 67 3.0 3.0 0.00 0.00 0.00 65 1010.8
20260509171523 86 176 0.0 2.0 0.00 0.00 0.00 63 1010.9
20260509171020 85 76 3.0 3.0 0.00 0.00 0.00 63 1010.9
20260509170515 84 303 0.0 5.0 0.00 0.00 0.00 66 1010.9
20260509170012 84 303 2.0 3.0 0.00 0.00 0.00 65 1010.8
20260509165510 84 209 0.0 4.0 0.00 0.00 0.00 64 1010.9
20260509165006 84 78 2.0 4.0 0.00 0.00 0.00 64 1010.8
20260509164502 84 160 1.0 4.0 0.00 0.00 0.00 65 1011.0
20260509163958 83 180 0.0 4.0 0.00 0.00 0.00 64 1011.0
20260509163456 83 348 0.0 6.0 0.00 0.00 0.00 65 1011.1
20260509162954 83 79 3.0 5.0 0.00 0.00 0.00 66 1010.9
20260509162454 82 173 0.0 4.0 0.00 0.00 0.00 66 1010.9
20260509161949 83 90 1.0 3.0 0.00 0.00 0.00 66 1011.1
20260509161446 83 348 1.0 5.0 0.00 0.00 0.00 66 1010.7
20260509160941 83 255 0.0 4.0 0.00 0.00 0.00 67 1010.8
20260509160438 82 251 2.0 3.0 0.00 0.00 0.00 67 1010.7
20260509155932 82 336 2.0 5.0 0.00 0.00 0.00 66 1010.9
20260509155429 82 190 2.0 3.0 0.00 0.00 0.00 66 1010.8
20260509154926 82 175 2.0 5.0 0.00 0.00 0.00 66 1010.8
20260509154422 81 175 2.0 4.0 0.00 0.00 0.00 67 1010.8
20260509153920 81 69 1.0 4.0 0.00 0.00 0.00 67 1010.8
20260509153416 81 180 0.0 3.0 0.00 0.00 0.00 69 1010.8
20260509152913 80 180 0.0 4.0 0.00 0.00 0.00 71 1010.9
20260509152409 79 306 0.0 3.0 0.00 0.00 0.00 73 1010.9
20260509151907 79 180 3.0 5.0 0.00 0.00 0.00 73 1010.9
20260509151402 78 132 2.0 5.0 0.00 0.00 0.00 73 1011.0
20260509150901 78 199 0.0 3.0 0.00 0.00 0.00 74 1011.0
20260509150358 78 61 2.0 3.0 0.00 0.00 0.00 76 1011.0
20260509145856 77 146 2.0 3.0 0.00 0.00 0.00 77 1011.0
20260509145350 77 228 0.0 4.0 0.00 0.00 0.00 77 1011.1
20260509144847 77 117 0.0 4.0 0.00 0.00 0.00 78 1010.9
20260509144344 77 245 2.0 3.0 0.00 0.00 0.00 79 1011.1
20260509143841 76 194 1.0 3.0 0.00 0.00 0.00 80 1010.8
20260509143338 75 75 0.0 3.0 0.00 0.00 0.00 82 1010.8
20260509142834 75 81 0.0 4.0 0.00 0.00 0.00 82 1011.0
20260509142331 74 78 0.0 3.0 0.00 0.00 0.00 84 1010.9
20260509141826 74 90 0.0 4.0 0.00 0.00 0.00 83 1011.0
20260509141328 74 270 0.0 3.0 0.00 0.00 0.00 84 1011.0
20260509140820 74 0 0.0 2.0 0.00 0.00 0.00 84 1011.0
20260509140317 74 180 0.0 6.0 0.00 0.00 0.00 84 1010.8
20260509135815 74 161 3.0 3.0 0.00 0.00 0.00 85 1010.9
20260509135312 73 180 0.0 1.0 0.00 0.00 0.00 85 1010.9
20260509134809 73 71 3.0 3.0 0.00 0.00 0.00 86 1010.9
20260509134306 73 270 0.0 2.0 0.00 0.00 0.00 87 1011.0
20260509133804 72 188 0.0 4.0 0.00 0.00 0.00 88 1010.8
20260509133300 72 31 3.0 3.0 0.00 0.00 0.00 89 1010.7
20260509132759 71 297 2.0 3.0 0.00 0.00 0.00 89 1010.7
20260509132257 71 160 1.0 4.0 0.00 0.00 0.00 90 1010.5
20260509131753 70 90 0.0 2.0 0.00 0.00 0.00 91 1010.4
20260509131250 70 15 2.0 5.0 0.00 0.00 0.00 91 1010.7
20260509130746 70 283 0.0 3.0 0.00 0.00 0.00 92 1010.7
20260509130242 69 66 0.0 3.0 0.00 0.00 0.00 93 1010.6
20260509125739 69 343 2.0 5.0 0.00 0.00 0.00 93 1010.7
20260509125236 69 334 0.0 3.0 0.00 0.00 0.00 93 1010.6
20260509124732 68 348 0.0 4.0 0.00 0.00 0.00 94 1010.7
20260509124229 68 160 1.0 4.0 0.00 0.00 0.00 94 1010.6
20260509123727 68 114 1.0 6.0 0.00 0.00 0.00 94 1010.7
20260509123224 68 331 0.0 3.0 0.00 0.00 0.00 94 1010.9
20260509122720 68 112 2.0 7.0 0.00 0.00 0.00 94 1010.3
20260509122217 68 337 0.0 3.0 0.00 0.00 0.00 95 1010.6
20260509121713 68 270 0.0 3.0 0.00 0.00 0.00 95 1010.6
20260509121211 68 121 0.0 3.0 0.00 0.00 0.00 95 1010.6
20260509120709 68 11 2.0 3.0 0.00 0.00 0.00 95 1010.5
20260509120207 68 0 0.0 4.0 0.00 0.00 0.00 95 1010.2
20260509115704 68 279 3.0 5.0 0.00 0.00 0.00 95 1010.4
20260509115201 67 270 0.0 4.0 0.00 0.00 0.00 94 1010.2
20260509114700 68 4 3.0 5.0 0.00 0.00 0.00 94 1010.5
20260509114158 68 279 0.0 3.0 0.00 0.00 0.00 93 1010.3
20260509113656 68 352 2.0 3.0 0.00 0.00 0.00 93 1010.1